Location: Holyhead Bay
(53.3667°N, 4.6667°W)
Time: 19:18:30
(UTC+00:00)

Meteor 1-5 Rocket - Pass Details

Date: 24 November 2020
Orbit: 788 x 916 km, 81.2° (Epoch: 17 January)

Event Time Altitude Azimuth Distance (km) Brightness Sun altitude
Rises 19:11:03 0° 346° (NNW) 3,569 7.6 -26.2°
Reaches altitude 10° 19:13:33 10° 348° (NNW) 2,621 6.9 -26.6°
Enters shadow 19:19:31 78° 67° (ENE) 934 4.2 -27.5°
